Location: Inowrocław
(52.7931°N, 18.2613°E)
Time: 11:53:46
(UTC+02:00)

ISS - Visible Passes

Search period start: 22 September 2018 00:00
Search period end: 02 October 2018 00:00
Orbit: 403 x 408 km, 51.6° (Epoch: 22 September)

Date Brightness Start Highest point End Pass type
(mag) Time Alt. Az. Time Alt. Az. Time Alt. Az.
22 Sep -1.4 20:28:22 10° S 20:28:51 12° S 20:28:51 12° S visible
23 Sep -1.6 19:37:50 10° SSE 19:38:58 11° SE 19:39:34 11° SE visible
23 Sep -1.2 21:11:43 10° SW 21:12:17 14° SW 21:12:17 14° SW visible
24 Sep -2.7 20:20:09 10° SSW 20:22:49 28° SSE 20:22:49 28° SSE visible
25 Sep -2.2 19:28:48 10° SSW 19:31:18 20° SSE 19:33:12 13° ESE visible
25 Sep -2.2 21:04:07 10° WSW 21:05:53 28° SW 21:05:53 28° SW visible
26 Sep -3.4 20:12:21 10° SW 20:15:30 44° SSE 20:16:08 38° SE visible
26 Sep -0.7 21:48:33 10° W 21:48:48 12° W 21:48:48 12° W visible
27 Sep -2.8 19:20:40 10° SW 19:23:39 32° SSE 19:26:17 12° E visible
27 Sep -2.8 20:56:38 10° WSW 20:58:57 41° WSW 20:58:57 41° WSW visible
28 Sep -3.7 20:04:43 10° WSW 20:07:59 61° SSE 20:09:02 38° ESE visible
28 Sep -0.8 21:41:06 10° W 21:41:42 14° W 21:41:42 14° W visible
29 Sep -3.4 19:12:52 10° WSW 19:16:04 49° SSE 19:19:03 12° E visible
29 Sep -3.1 20:49:09 10° W 20:51:43 50° WSW 20:51:43 50° WSW visible
30 Sep -3.8 19:57:10 10° W 20:00:28 72° S 20:01:42 35° E visible
30 Sep -0.9 21:33:37 10° W 21:34:21 15° W 21:34:21 15° W visible
01 Oct -3.7 19:05:13 10° WSW 19:08:30 65° S 19:11:39 11° E visible
01 Oct -3.1 20:41:37 10° W 20:44:18 51° WSW 20:44:18 51° WSW visible
